Temperature
20 20 20 20 20 20 20 20 20 20 20 20 19 19 19 19 19 19 19 19 19 19 19 19 19 19 19 19 19 19 19 19 19 18 18 18 18 18 18 18 18 18 18
20 20 20 20 20 20 20 20 20 19 19 19 19 19 19 19 19 19 19 19 19 19 19 19 19 19 19 19 19 19 19 18 18 18 18 18 18 18 18 18 18 18 18
20 20 20 20 20 20 20 20 20 19 19 19 19 19 19 19 19 19 19 19 19 19 19 19 19 19 19 19 19 18 18 18 18 18 18 18 18 18 18 18 18 18 18
20 20 20 20 20 20 20 20 20 19 19 19 19 19 19 19 19 19 19 19 19 19 19 19 19 19 18 18 18 18 18 18 18 18 18 18 18 18 18 18 18 18 18
20 20 20 20 20 20 20 20 20 19 19 19 19 19 19 19 19 19 19 19 19 19 19 19 19 18 18 18 18 18 18 18 18 18 18 18 18 18 18 18 18 18 18
20 20 20 20 20 20 20 20 20 19 19 19 19 19 19 19 19 19 19 19 19 19 19 19 19 18 18 18 18 18 18 18 18 18 18 18 18 18 18 18 18 18 17
21 20 20 20 20 20 20 20 20 19 19 19 19 19 19 19 19 19 19 19 19 19 19 19 18 18 18 18 18 18 18 18 18 18 18 18 18 18 18 18 18 18 17
21 20 21 20 20 20 20 20 19 19 19 19 19 19 19 19 19 19 19 19 19 19 19 18 18 18 18 18 18 18 18 18 18 18 18 18 18 18 18 18 18 18 17
21 21 20 20 20 20 20 20 20 20 20 19 19 19 19 19 19 19 19 19 19 19 19 18 18 18 18 18 18 18 18 18 18 18 18 18 18 18 18 18 18 18 17
21 21 21 20 20 20 20 20 20 20 20 19 19 19 19 19 19 19 19 19 19 19 19 18 18 18 18 18 18 18 18 18 18 18 18 18 18 18 18 18 18 18 17
21 21 21 21 20 20 20 20 20 20 19 19 19 19 19 19 19 19 19 19 19 19 18 18 18 18 18 18 18 18 18 18 18 18 18 18 18 18 18 18 18 18 17
21 21 21 21 20 20 20 20 20 20 19 19 19 19 19 19 19 19 19 19 19 19 18 19 19 18 18 18 18 18 18 18 18 18 18 18 18 18 18 18 18 18 17
21 21 21 20 20 20 20 20 20 20 19 19 19 19 19 19 19 19 19 19 19 19 18 18 18 18 18 18 18 18 18 18 18 18 18 18 18 18 18 18 18 17 17
22 21 21 20 20 20 20 20 20 20 20 19 19 19 19 19 19 19 19 19 19 18 18 18 18 18 18 18 18 18 18 18 18 18 18 18 18 18 18 18 17 17 17
22 21 21 20 20 20 20 20 20 20 20 20 19 19 19 19 19 19 19 19 19 18 18 18 18 18 18 18 18 18 18 18 18 18 18 18 18 18 18 18 17 17 17
22 21 21 20 20 20 20 20 20 20 20 20 19 19 19 19 19 19 19 19 19 19 18 18 18 18 18 18 18 18 18 18 18 18 18 18 18 18 18 18 17 17 17
21 21 21 20 20 20 20 20 20 20 20 20 19 19 19 19 19 19 19 19 19 19 18 18 18 18 18 18 18 18 18 18 18 18 18 18 18 18 18 17 17 17 17
21 21 21 21 20 20 20 20 20 20 20 20 19 19 19 19 19 19 19 19 19 19 19 19 18 18 18 18 18 18 18 18 18 18 18 18 18 18 18 17 17 17 17
21 21 21 21 20 20 20 20 20 20 20 20 20 20 19 19 19 19 19 19 19 19 19 18 18 18 18 18 18 18 18 18 18 18 18 18 18 18 18 17 17 17 17
21 21 21 21 20 20 20 20 20 20 20 20 20 20 20 19 19 19 19 19 19 19 19 19 19 19 18 19 19 19 19 19 19 18 18 18 18 18 18 17 17 17 17
22 21 21 20 20 20 20 20 20 20 20 20 20 20 20 19 19 19 19 19 19 19 19 19 19 19 19 19 19 19 19 19 19 19 18 18 18 18 18 18 17 17 17
22 21 21 21 20 20 20 20 20 20 20 20 20 20 19 19 19 19 19 19 19 19 19 19 19 19 19 19 19 18 19 19 19 19 19 19 18 18 18 18 17 17 17
22 21 21 21 20 20 20 20 20 20 20 20 20 20 19 19 19 19 19 19 19 19 19 19 19 19 19 19 19 19 18 19 19 19 19 18 18 18 18 18 18 17 17
23 22 21 21 21 20 20 20 20 20 20 20 20 20 20 19 19 19 19 19 19 19 19 19 19 19 19 19 19 19 19 18 18 18 18 19 18 18 18 18 17 17 17
23 22 21 21 21 20 20 20 20 20 20 20 20 20 20 20 19 19 19 19 19 19 19 19 19 19 19 18 18 18 18 18 18 18 18 18 18 18 18 18 17 17 17
23 23 22 21 21 20 20 20 20 20 20 20 20 20 20 20 19 19 19 19 19 19 19 19 19 19 19 18 18 18 18 18 18 18 18 18 18 18 18 18 17 17 17
Wind_Speed
10 11 12 11 11 11 11 11 11 11 12 13 13 11 11 11 11 11 11 12 13 14 13 13 13 12 12 11 11 11 11 11 11 11 11 11 10 9 9 8 7 8 9
12 12 12 11 12 12 12 12 12 12 13 13 12 11 11 11 11 11 11 12 12 13 13 12 12 12 12 11 10 10 10 11 11 11 11 10 8 7 7 6 7 8 8
13 12 12 11 12 12 13 13 13 13 12 12 11 11 11 11 11 11 11 12 12 12 12 12 12 12 11 11 10 9 9 10 10 10 10 8 7 7 7 8 8 8 7
12 12 11 12 12 13 13 13 12 12 12 12 11 11 11 11 11 10 10 11 11 12 12 12 11 11 11 10 10 9 8 8 8 7 5 6 7 7 8 8 7 6 6
12 12 12 12 13 13 13 12 12 11 11 11 11 11 10 10 10 10 10 11 11 11 11 11 11 11 10 9 9 7 7 6 5 4 4 7 8 8 8 7 7 6 6
12 13 13 13 13 13 12 12 11 11 10 10 10 10 10 10 10 10 10 10 10 11 11 11 11 11 10 8 7 6 5 4 3 3 6 8 8 8 7 7 6 6 6
11 12 12 13 13 13 12 11 11 10 10 9 10 9 9 10 10 10 10 10 10 11 10 10 11 10 9 8 7 5 4 3 3 2 5 7 9 9 8 6 6 6 6
11 12 13 13 13 13 12 11 11 10 9 9 9 9 9 9 9 10 10 10 11 10 10 11 10 10 9 8 6 5 4 3 2 3 5 6 9 10 8 7 7 6 6
11 11 11 13 13 12 11 11 11 10 9 9 9 8 9 9 9 9 10 11 11 10 10 10 10 9 8 7 6 5 4 4 2 3 5 6 9 9 8 7 7 6 5
9 9 9 10 11 12 11 11 11 11 9 9 8 8 8 9 9 9 11 11 10 10 10 10 9 9 8 7 6 5 5 3 3 3 5 7 9 8 7 7 6 6 6
7 7 7 8 8 10 11 12 12 11 10 9 7 7 7 7 8 9 10 11 10 10 9 9 9 8 7 7 7 6 5 4 2 4 6 8 8 7 6 6 6 6 6
7 7 6 6 6 7 8 10 9 8 8 7 6 6 5 5 7 9 11 12 11 10 9 9 9 8 7 5 6 7 5 4 2 4 7 9 8 6 6 5 6 6 6
8 7 7 6 5 5 5 6 4 5 6 6 5 4 4 5 7 8 7 9 8 8 7 8 8 6 5 4 3 4 4 2 3 5 7 8 8 7 6 5 5 5 6
8 8 7 7 6 5 5 4 4 4 4 4 5 3 3 3 3 4 3 5 5 5 5 5 4 4 4 3 2 2 1 2 3 5 7 8 8 7 6 6 6 5 5
8 9 8 8 6 5 4 2 4 4 4 5 5 5 4 3 3 3 2 3 4 4 4 3 2 3 2 2 2 2 1 1 3 5 6 8 8 7 7 7 7 6 6
8 8 8 8 7 4 3 2 2 4 4 4 5 6 5 4 4 3 2 2 2 3 3 3 2 3 2 2 1 1 2 2 3 5 7 8 9 9 9 8 8 7 7
8 8 7 8 7 4 3 2 2 3 5 4 4 6 5 5 4 3 2 2 2 3 4 3 3 3 2 2 2 2 2 2 3 4 6 7 8 10 10 10 9 8 8
8 7 4 6 8 5 2 1 2 3 3 3 4 6 6 5 4 2 2 2 2 3 2 2 2 2 2 2 2 3 2 2 3 4 5 7 8 8 10 11 10 9 9
8 7 5 4 5 5 4 2 2 3 3 2 3 4 5 4 4 2 1 1 3 2 2 2 2 2 2 2 3 3 3 3 3 4 4 5 7 8 8 11 11 10 9
8 7 6 4 4 3 4 3 1 2 2 2 3 3 4 3 2 2 2 2 2 1 1 1 1 1 1 2 3 2 3 3 3 3 4 4 5 7 8 9 10 9 10
9 8 6 5 4 3 2 1 2 2 2 2 3 4 3 3 2 1 0 1 1 1 2 1 1 1 2 1 1 1 2 3 3 3 3 2 3 5 7 9 9 8 8
9 8 7 5 5 4 3 2 2 2 1 2 3 3 3 2 2 2 1 1 1 1 2 1 1 1 2 1 1 1 1 1 1 2 3 3 3 3 4 6 7 8 8
10 9 7 6 6 4 3 3 2 2 1 1 3 3 2 2 2 0 1 1 0 1 2 2 2 2 2 2 1 1 1 1 2 1 1 1 2 3 3 3 4 6 7
11 10 8 7 6 4 3 2 3 3 2 2 2 2 2 2 2 1 1 0 1 0 1 2 2 2 3 3 2 1 1 1 1 1 2 1 3 3 3 2 1 3 5
11 10 9 8 6 5 4 3 2 1 1 1 1 3 2 3 2 1 1 1 1 1 1 1 0 2 2 3 2 2 1 1 2 2 2 2 2 2 2 2 1 1 4
10 10 10 9 7 5 4 3 2 2 1 1 1 2 2 2 2 2 2 1 1 1 1 1 1 2 2 3 3 2 2 1 2 2 3 2 3 2 1 1 2 2 3
Wind_Direction
88 92 95 91 89 89 90 94 97 95 98 105 110 109 108 108 110 114 116 120 123 127 131 133 132 130 127 121 115 113 113 112 111 109 105 102 98 98 103 109 112 107 110
99 98 96 93 91 92 93 94 98 99 98 102 105 107 107 109 112 114 117 122 125 128 128 130 132 131 129 125 121 120 122 122 121 119 116 113 109 107 107 103 104 114 121
98 103 100 97 96 96 97 97 98 100 101 101 103 106 105 105 110 112 118 124 128 132 130 127 130 129 128 126 126 127 131 131 133 134 131 126 121 119 117 110 110 123 128
96 98 98 102 101 99 99 98 98 100 102 103 102 103 105 106 108 114 121 127 131 133 133 133 136 134 132 132 135 140 144 145 149 152 148 135 125 120 129 125 127 129 137
96 99 102 106 105 103 102 100 98 98 99 101 101 102 105 107 108 112 124 129 132 134 137 140 140 138 135 135 139 144 146 153 166 172 138 119 118 130 136 138 140 145 149
99 101 109 113 111 108 103 102 102 101 100 101 103 106 108 110 112 114 120 127 130 134 138 142 143 141 137 140 145 146 151 168 201 182 137 134 133 144 146 148 152 158 157
104 109 115 117 116 115 112 109 106 103 104 106 106 108 110 113 117 117 119 131 137 137 140 143 144 144 144 150 154 160 174 205 226 167 122 126 141 151 154 158 157 160 162
110 115 123 123 120 120 121 118 115 112 111 112 113 112 114 115 118 122 123 123 127 129 137 141 142 142 146 155 163 180 197 250 199 139 132 130 149 156 162 168 167 169 169
105 118 131 137 132 128 126 124 124 124 124 125 124 124 123 122 122 127 126 125 127 127 132 138 142 146 152 163 175 195 215 240 234 152 144 136 152 158 165 169 169 170 172
99 111 127 133 138 141 136 137 134 136 138 142 142 141 140 135 134 137 132 131 132 135 140 145 150 155 166 175 190 211 231 249 207 163 129 138 155 158 166 171 174 176 176
94 109 121 129 137 146 144 144 148 150 155 156 162 166 165 160 148 149 135 139 142 144 149 155 160 168 173 186 206 222 232 230 177 121 118 143 155 160 163 170 178 183 185
102 104 102 106 122 139 134 139 154 152 154 161 151 147 157 157 143 138 140 149 152 155 158 168 177 177 180 186 203 217 226 215 167 128 132 148 155 165 172 171 176 181 187
107 100 101 94 102 116 119 133 147 142 140 140 130 133 141 139 138 136 147 151 159 164 171 169 178 183 182 186 202 208 218 204 139 130 137 150 154 161 166 170 179 187 193
106 105 97 91 87 88 95 118 130 120 128 131 130 123 115 110 119 124 136 152 160 163 167 169 179 177 177 178 204 230 218 187 129 126 144 158 162 169 177 180 186 198 202
110 107 100 95 84 82 74 77 108 110 111 119 125 124 113 106 104 114 138 145 144 151 167 174 173 156 153 181 199 199 211 143 146 155 159 170 176 183 186 186 197 201 208
109 108 109 110 104 102 106 101 98 110 114 115 120 116 115 117 116 124 127 119 130 156 174 171 169 152 168 190 206 212 205 179 183 172 166 179 190 192 191 195 205 211 212
116 113 123 127 119 119 124 130 127 116 119 115 123 123 118 116 127 133 134 135 162 173 166 171 177 155 168 191 202 217 217 207 197 183 176 182 186 194 200 202 206 210 214
122 117 128 124 126 130 118 84 79 89 97 107 120 121 120 123 129 132 139 157 181 173 170 171 169 183 181 187 209 228 205 205 201 198 196 188 185 189 199 202 201 208 214
121 123 124 103 117 129 131 124 126 105 98 114 119 120 124 132 140 149 146 177 196 180 181 185 151 177 194 198 213 221 216 201 202 208 195 192 191 181 181 192 201 207 212
129 129 133 132 121 130 139 143 140 111 134 131 112 116 122 138 142 155 164 192 209 160 148 127 144 199 227 238 251 235 222 200 194 202 206 193 187 191 184 180 188 205 217
139 138 139 143 139 140 134 146 154 149 155 142 138 126 120 143 160 191 124 195 192 188 170 159 171 229 239 235 260 267 247 217 195 194 197 195 198 195 186 178 183 190 199
149 149 146 155 156 160 153 167 175 173 167 149 115 113 133 160 174 187 164 221 212 178 166 188 220 241 258 235 241 289 293 268 279 211 184 199 212 199 189 195 190 192 194
157 158 162 159 156 167 174 179 165 151 164 115 131 143 160 169 167 228 138 269 279 184 179 197 226 229 256 257 234 238 279 289 311 277 226 209 209 219 212 197 191 193 189
164 163 155 152 154 163 177 193 190 175 172 174 145 133 151 206 198 189 145 184 304 306 204 228 202 253 258 270 269 263 247 254 285 304 300 242 215 228 226 235 200 178 181
167 163 157 150 155 162 184 201 212 207 190 153 128 138 179 191 195 170 162 178 240 265 240 249 235 273 269 273 284 265 260 237 237 247 274 280 262 232 209 218 180 155 177
165 163 155 148 155 167 183 194 186 228 240 127 166 177 208 193 183 180 183 194 235 256 253 247 237 239 264 293 305 293 268 268 268 256 257 259 265 262 190 210 184 192 181
Height
1497 1496 1495 1495 1494 1494 1493 1493 1493 1491 1490 1491 1495 1498 1501 1504 1506 1508 1510 1513 1515 1517 1519 1521 1523 1525 1528 1530 1531 1533 1535 1536 1538 1539 1540 1541 1542 1543 1544 1545 1546 1547 1548
1498 1497 1497 1497 1496 1496 1496 1495 1495 1495 1495 1497 1499 1502 1504 1506 1507 1509 1511 1513 1516 1518 1520 1522 1524 1526 1528 1531 1532 1534 1536 1537 1539 1540 1541 1542 1543 1544 1545 1546 1547 1548 1549
1499 1499 1499 1498 1498 1498 1498 1498 1499 1499 1500 1501 1503 1505 1506 1507 1509 1510 1512 1514 1517 1519 1521 1523 1525 1527 1529 1531 1533 1535 1536 1538 1540 1541 1542 1543 1544 1545 1546 1547 1548 1548 1549
1501 1501 1500 1500 1500 1500 1500 1501 1502 1503 1504 1505 1506 1508 1509 1510 1511 1512 1513 1515 1517 1520 1522 1524 1526 1528 1530 1532 1534 1535 1537 1539 1540 1542 1543 1544 1545 1546 1547 1547 1548 1549 1549
1502 1502 1502 1502 1503 1503 1503 1504 1505 1506 1507 1508 1509 1510 1511 1512 1513 1513 1515 1517 1518 1520 1522 1524 1526 1528 1530 1532 1534 1536 1538 1540 1541 1543 1544 1545 1546 1546 1547 1547 1548 1549 1549
1504 1504 1504 1504 1505 1505 1506 1506 1507 1509 1510 1511 1512 1513 1514 1514 1515 1515 1516 1518 1519 1521 1522 1524 1527 1529 1531 1533 1535 1537 1539 1540 1542 1544 1545 1545 1546 1547 1547 1548 1548 1549 1549
1505 1505 1505 1506 1507 1507 1508 1509 1510 1511 1512 1513 1514 1515 1516 1516 1517 1518 1518 1519 1520 1522 1524 1525 1528 1530 1532 1534 1535 1537 1539 1541 1543 1544 1545 1545 1546 1546 1547 1548 1548 1548 1549
1505 1506 1507 1507 1508 1509 1510 1511 1512 1513 1514 1515 1516 1517 1518 1518 1519 1520 1520 1521 1522 1523 1525 1527 1529 1531 1533 1535 1536 1538 1540 1541 1543 1544 1544 1545 1546 1546 1547 1547 1548 1548 1549
1507 1508 1508 1508 1509 1510 1512 1513 1514 1515 1516 1517 1518 1519 1520 1520 1521 1522 1522 1523 1524 1526 1527 1528 1530 1532 1534 1536 1537 1539 1540 1542 1543 1544 1544 1545 1546 1546 1547 1547 1547 1548 1548
1508 1509 1509 1510 1511 1512 1514 1515 1516 1517 1518 1519 1520 1521 1521 1522 1523 1524 1525 1526 1527 1528 1529 1530 1532 1533 1535 1536 1538 1539 1541 1542 1543 1544 1544 1545 1545 1546 1546 1546 1547 1547 1547
1510 1510 1511 1512 1513 1514 1516 1517 1518 1519 1520 1521 1522 1522 1523 1524 1525 1526 1527 1528 1529 1530 1531 1532 1533 1534 1536 1537 1539 1540 1541 1542 1543 1543 1544 1544 1545 1545 1545 1546 1546 1546 1547
1511 1511 1512 1513 1513 1515 1517 1519 1520 1521 1522 1523 1523 1524 1525 1526 1527 1528 1529 1529 1530 1531 1532 1533 1534 1535 1536 1537 1539 1540 1541 1542 1543 1543 1544 1544 1544 1545 1545 1545 1545 1545 1546
1512 1513 1513 1513 1513 1515 1518 1520 1522 1523 1523 1524 1525 1525 1526 1527 1528 1528 1529 1530 1531 1532 1533 1534 1535 1536 1537 1538 1539 1540 1541 1542 1542 1543 1543 1544 1544 1544 1544 1544 1544 1544 1545
1514 1514 1515 1515 1515 1516 1519 1521 1523 1524 1525 1526 1526 1527 1527 1528 1528 1529 1530 1531 1532 1533 1534 1535 1535 1536 1537 1538 1539 1540 1541 1541 1542 1542 1543 1543 1543 1543 1543 1543 1543 1544 1544
1515 1516 1516 1517 1517 1518 1520 1522 1524 1525 1526 1527 1527 1528 1528 1529 1529 1530 1531 1532 1533 1533 1534 1535 1536 1537 1538 1538 1539 1540 1540 1541 1541 1541 1542 1542 1542 1542 1542 1542 1542 1543 1543
1516 1517 1518 1519 1519 1520 1522 1523 1525 1526 1527 1528 1528 1529 1529 1530 1530 1531 1532 1533 1534 1534 1535 1536 1536 1537 1538 1538 1539 1540 1540 1540 1540 1541 1541 1541 1541 1541 1541 1541 1541 1541 1541
1517 1518 1519 1520 1521 1522 1523 1525 1526 1528 1528 1529 1529 1529 1530 1531 1531 1532 1532 1533 1534 1535 1535 1536 1537 1537 1538 1538 1538 1539 1539 1539 1540 1540 1540 1540 1539 1540 1539 1540 1540 1540 1540
1518 1519 1520 1522 1522 1523 1524 1526 1527 1528 1529 1529 1530 1530 1530 1531 1532 1532 1533 1533 1534 1535 1535 1536 1536 1537 1537 1537 1537 1538 1538 1538 1538 1539 1539 1538 1538 1538 1538 1538 1538 1538 1538
1518 1519 1520 1522 1523 1524 1525 1526 1527 1528 1529 1530 1530 1531 1531 1531 1532 1532 1533 1533 1534 1535 1535 1536 1536 1536 1536 1537 1536 1536 1537 1537 1537 1537 1537 1537 1537 1537 1537 1537 1536 1536 1536
1519 1520 1521 1522 1524 1524 1526 1527 1528 1529 1529 1530 1531 1531 1532 1532 1532 1532 1533 1533 1534 1534 1535 1535 1535 1536 1536 1536 1536 1536 1536 1535 1535 1535 1536 1536 1536 1536 1535 1535 1535 1534 1534
1519 1520 1521 1522 1524 1524 1526 1527 1528 1529 1529 1530 1531 1532 1532 1532 1532 1533 1533 1533 1534 1534 1534 1535 1535 1535 1535 1535 1535 1535 1535 1534 1534 1534 1534 1534 1534 1534 1534 1534 1533 1532 1532
1518 1519 1520 1522 1523 1524 1526 1527 1528 1529 1529 1530 1531 1531 1532 1532 1533 1533 1533 1533 1533 1533 1533 1533 1534 1534 1534 1535 1535 1534 1534 1534 1533 1533 1533 1533 1533 1533 1533 1533 1532 1531 1531
1517 1518 1520 1521 1523 1524 1526 1527 1528 1529 1529 1530 1530 1531 1531 1532 1532 1532 1532 1532 1532 1532 1532 1532 1533 1533 1533 1534 1534 1534 1533 1532 1532 1533 1533 1532 1532 1532 1532 1531 1531 1530 1529
1516 1517 1519 1520 1522 1523 1525 1526 1527 1528 1529 1529 1530 1530 1531 1531 1532 1531 1531 1531 1531 1531 1531 1531 1531 1532 1532 1532 1533 1533 1533 1532 1532 1531 1532 1531 1531 1530 1530 1530 1529 1528 1528
1515 1517 1518 1519 1521 1522 1524 1525 1526 1527 1528 1529 1529 1530 1530 1531 1531 1530 1530 1530 1530 1530 1530 1530 1530 1530 1530 1531 1531 1531 1531 1531 1530 1530 1529 1529 1529 1528 1528 1528 1527 1526 1526
1514 1516 1517 1518 1520 1521 1523 1524 1525 1526 1527 1528 1528 1528 1529 1529 1529 1529 1529 1529 1529 1529 1529 1528 1528 1528 1528 1529 1529 1529 1529 1529 1529 1529 1528 1527 1526 1526 1526 1526 1525 1525 1524